SCP
0 0 0 0 0 0 0 0 0 0 0 0 0 0 0 0 0 0 0 0 0 0
0 0 0 0 0 0 0 0 0 0 0 0 0 0 0 0 0 0 0 0 0 0
0 0 0 0 0 0 0 0 0 0 0 0 0 0 0 0 0 0 0 0 0 0
0 0 0 0 0 0 0 0 0 0 0 0 0 0 0 0 0 0 0 0 0 0
0 0 0 0 0 0 0 0 0 0 0 0 0 0 0 0 0 0 0 0 0 0
0 0 0 0 0 0 0 0 0 0 0 0 0 0 0 0 0 0 0 0 0 -0
0 0 0 0 0 0 0 0 0 0 0 0 0 0 0 0 0 0 0 0 0 0
0 0 0 0 0 0 0 0 0 0 0 0 0 0 0 0 0 0 0 0 0 0
0 0 0 0 0 0 0 0 0 0 0 0 0 0 0 0 0 0 0 0 0 0
0 0 0 0 0 0 0 0 0 0 0 0 0 0 0 0 0 0 0 0 0 0
0 0 0 0 0 0 0 0 0 0 0 0 0 0 0 0 0 0 0 0 0 0
0 0 0 0 0 0 0 0 0 0 0 0 0 0 0 0 0 0 0 0 0 0
0 0 0 0 0 0 0 0 0 0 0 0 0 0 0 0 0 0 0 0 0 0
0 0 0 0 0 0 0 0 0 0 0 0 0 0 0 0 0 0 0 0 0 0
Wind_Speed_500mb
105 99 96 87 81 80 77 72 67 65 63 60 58 57 51 45 41 40 42 43 50 53
107 106 97 94 87 81 77 72 67 65 63 62 59 58 54 49 44 41 42 46 50 51
109 103 96 94 94 87 81 75 71 68 65 64 63 59 57 51 45 40 44 47 50 57
114 107 100 93 96 92 84 77 74 71 68 67 66 63 60 55 50 46 47 45 46 54
116 108 102 98 92 96 89 79 77 74 72 70 69 66 63 60 56 52 50 47 49 51
113 111 104 99 91 92 92 84 81 80 77 74 72 70 65 62 58 53 48 46 46 52
112 110 101 95 91 87 93 90 84 82 80 76 73 72 68 65 61 55 49 45 45 52
106 103 97 94 91 85 90 93 84 84 82 79 76 74 73 69 65 59 53 48 47 51
99 97 98 92 90 86 87 93 88 87 85 83 79 76 74 71 69 63 57 53 53 54
94 92 90 87 88 86 89 93 90 88 88 85 82 77 75 73 69 66 61 57 58 60
85 88 80 81 85 83 86 93 92 90 88 86 83 77 76 74 71 67 63 61 62 62
77 77 78 76 80 81 84 89 92 87 88 87 84 79 76 76 75 72 68 65 65 66
69 70 73 70 75 77 79 86 88 87 87 85 82 80 78 79 78 77 73 68 67 69
57 60 61 56 68 78 80 84 89 87 87 85 82 81 79 80 80 79 77 75 74 74
Wind_Direction_500mb
227 226 226 220 216 214 213 211 205 203 202 200 199 200 199 198 196 198 199 194 186 186
226 226 227 221 218 218 215 215 209 206 204 201 201 200 201 202 200 203 201 195 193 191
227 227 227 225 218 217 216 214 211 208 205 203 202 202 202 203 199 203 192 193 196 194
225 224 224 226 220 218 217 214 212 210 207 204 203 202 201 203 199 196 189 190 190 189
223 224 223 224 221 218 216 214 213 211 209 206 204 203 202 202 199 198 195 195 193 196
221 221 221 222 221 218 216 214 212 211 210 208 205 204 203 203 201 200 199 201 201 196
220 220 220 220 219 218 214 213 211 211 210 209 207 205 204 202 203 203 202 201 202 200
218 219 218 218 217 216 213 212 211 210 209 209 208 206 204 203 202 202 202 200 200 197
215 216 214 214 215 214 212 210 209 209 209 208 208 207 206 204 203 202 204 201 196 195
215 213 213 210 212 211 209 208 207 208 208 209 209 206 205 204 205 204 203 200 195 190
209 211 210 207 209 208 207 207 206 207 207 209 209 207 205 204 204 205 204 202 197 192
206 206 206 207 206 207 206 205 206 207 207 207 208 206 205 204 204 204 205 202 199 197
210 208 209 210 208 208 208 206 205 206 208 208 208 205 204 205 205 204 204 204 203 203
212 211 212 213 212 208 207 206 205 206 207 208 207 205 204 206 207 206 204 205 203 204
Wind_Speed_850mb
105 99 96 87 81 80 77 72 67 65 63 60 58 57 51 45 41 40 42 43 50 53
107 106 97 94 87 81 77 72 67 65 63 62 59 58 54 49 44 41 42 46 50 51
109 103 96 94 94 87 81 75 71 68 65 64 63 59 57 51 45 40 44 47 50 57
114 107 100 93 96 92 84 77 74 71 68 67 66 63 60 55 50 46 47 45 46 54
116 108 102 98 92 96 89 79 77 74 72 70 69 66 63 60 56 52 50 47 49 51
113 111 104 99 91 92 92 84 81 80 77 74 72 70 65 62 58 53 48 46 46 52
112 110 101 95 91 87 93 90 84 82 80 76 73 72 68 65 61 55 49 45 45 52
106 103 97 94 91 85 90 93 84 84 82 79 76 74 73 69 65 59 53 48 47 51
99 97 98 92 90 86 87 93 88 87 85 83 79 76 74 71 69 63 57 53 53 54
94 92 90 87 88 86 89 93 90 88 88 85 82 77 75 73 69 66 61 57 58 60
85 88 80 81 85 83 86 93 92 90 88 86 83 77 76 74 71 67 63 61 62 62
77 77 78 76 80 81 84 89 92 87 88 87 84 79 76 76 75 72 68 65 65 66
69 70 73 70 75 77 79 86 88 87 87 85 82 80 78 79 78 77 73 68 67 69
57 60 61 56 68 78 80 84 89 87 87 85 82 81 79 80 80 79 77 75 74 74
Wind_Direction_850mb
227 226 226 220 216 214 213 211 205 203 202 200 199 200 199 198 196 198 199 194 186 186
226 226 227 221 218 218 215 215 209 206 204 201 201 200 201 202 200 203 201 195 193 191
227 227 227 225 218 217 216 214 211 208 205 203 202 202 202 203 199 203 192 193 196 194
225 224 224 226 220 218 217 214 212 210 207 204 203 202 201 203 199 196 189 190 190 189
223 224 223 224 221 218 216 214 213 211 209 206 204 203 202 202 199 198 195 195 193 196
221 221 221 222 221 218 216 214 212 211 210 208 205 204 203 203 201 200 199 201 201 196
220 220 220 220 219 218 214 213 211 211 210 209 207 205 204 202 203 203 202 201 202 200
218 219 218 218 217 216 213 212 211 210 209 209 208 206 204 203 202 202 202 200 200 197
215 216 214 214 215 214 212 210 209 209 209 208 208 207 206 204 203 202 204 201 196 195
215 213 213 210 212 211 209 208 207 208 208 209 209 206 205 204 205 204 203 200 195 190
209 211 210 207 209 208 207 207 206 207 207 209 209 207 205 204 204 205 204 202 197 192
206 206 206 207 206 207 206 205 206 207 207 207 208 206 205 204 204 204 205 202 199 197
210 208 209 210 208 208 208 206 205 206 208 208 208 205 204 205 205 204 204 204 203 203
212 211 212 213 212 208 207 206 205 206 207 208 207 205 204 206 207 206 204 205 203 204